Regional Weather Roundup
Issued by NWS

Home | Current Version | Previous Version | Graphics & Text | Print | Product List | Glossary On
Versions: 1 2 3 4 5 6 7 8 9 10 11 12 13 14 15 16 17 18 19 20 21 22 23 24 25 26 27 28 29 30 31 32 33 34 35 36 37 38 39 40 41 42 43 44 45 46 47 48 49 50
000
ASUS45 KBOI 301410
RWRID
WEATHER ROUNDUP FOR IDAHO
NATIONAL WEATHER SERVICE BOISE ID
800 AM MDT WED JUL 30 2014

NOTE: "FAIR" INDICATES FEW OR NO CLOUDS BELOW 12000 FEET
WITH NO SIGNIFICANT WEATHER AND/OR OBSTRUCTIONS TO VISIBILITY

IDZ012-014-301500-
SOUTHWEST IDAHO


CITY           SKY/WX    TMP DP  RH WIND       PRES   REMARKS
BOISE          PTSUNNY   75  52  44 N6        30.12R
CALDWELL       PTSUNNY   68  50  52 CALM      30.14R
MOUNTAIN HOME  PTSUNNY   65  58  78 E9        30.13R
$$

IDZ016-017-301500-
SOUTHCENTRAL IDAHO


CITY           SKY/WX    TMP DP  RH WIND       PRES   REMARKS
BURLEY         MOSUNNY   60  52  74 CALM      30.22R
JEROME         PTSUNNY   67  57  70 E5        30.22R
TWIN FALLS     PTSUNNY   68  51  54 S8        30.21R
$$

IDZ019>023-301500-
SOUTHEAST IDAHO


CITY           SKY/WX    TMP DP  RH WIND       PRES   REMARKS
IDAHO FALLS    PTSUNNY   57  54  89 CALM      30.26S
POCATELLO      MOSUNNY   57  56  96 SW3       30.24R
REXBURG        PTSUNNY   59  52  77 CALM      30.27R
$$

IDZ006-010-011-018-031-032-301500-
CENTRAL IDAHO MOUNTAINS


CITY           SKY/WX    TMP DP  RH WIND       PRES   REMARKS
MCCALL         MOSUNNY   55  46  71 S5        30.25R
HAILEY         MOSUNNY   57  52  82 W12       30.30R
STANLEY          N/A     47  43  86 CALM      30.38R
SALMON         PTSUNNY   59  54  82 CALM      30.24R
CHALLIS        PTSUNNY   61  47  59 CALM      30.28R
$$

IDZ002-004-006-007-026-301500-
NORTHERN IDAHO


CITY           SKY/WX    TMP DP  RH WIND       PRES   REMARKS
LEWISTON       MOSUNNY   73  48  41 E5        30.04R
LOWELL           N/A     60  55  83 CALM      30.13R
COEUR D`ALENE  SUNNY     63  48  59 E5        30.07R
MULLAN PASS    SUNNY     70  36  28 W5        30.30R
$$


USA.gov is the U.S. government's official web portal to all federal, state and local government web resources and services.